This is the latest recevied weather packets stored in our database for station/object K1BES. If no packets are shown the sender has not sent any weather packets the latest 10 day(s).
| Time | Temp. | Humidity | Pressure | Rain* | Wind** | Luminosity | Snow |
|---|---|---|---|---|---|---|---|
| 1788102194 | 31.67° C | 73% | 1019.9 hPa | 0 mm | - | 802 W/m² | - |
| 1788101889 | 31.67° C | 73% | 1020 hPa | 0 mm | - | 810 W/m² | - |
| 1788101584 | 31.11° C | 75% | 1019.9 hPa | 0 mm | - | 758 W/m² | - |
| 1788101279 | 31.67° C | 74% | 1020.1 hPa | 0 mm | - | 745 W/m² | - |
| 1788100975 | 31.11° C | 74% | 1020.1 hPa | 0 mm | - | 692 W/m² | - |
| 1788100671 | 31.11° C | 73% | 1020 hPa | 0 mm | - | 249 W/m² | - |
| 1788100370 | 31.11° C | 76% | 1020.2 hPa | 0 mm | - | 652 W/m² | - |
| 1788100065 | 31.11° C | 75% | 1020.1 hPa | 0 mm | - | 607 W/m² | - |
| 1788099760 | 31.11° C | 75% | 1020.2 hPa | 0 mm | - | 544 W/m² | - |
| 1788099456 | 30.56° C | 76% | 1020.2 hPa | 0 mm | - | 303 W/m² | - |
| 1788099151 | 30.56° C | 77% | 1020.1 hPa | 0 mm | - | 292 W/m² | - |
| 1788098850 | 30.56° C | 77% | 1020.2 hPa | 0 mm | - | 546 W/m² | - |
| 1788098546 | 30° C | 78% | 1020.2 hPa | 0 mm | - | 530 W/m² | - |
| 1788098240 | 30° C | 78% | 1020 hPa | 0 mm | - | 507 W/m² | - |
| 1788097936 | 30° C | 80% | 1019.9 hPa | 0 mm | - | 486 W/m² | - |
| 1788097631 | 30° C | 79% | 1020.1 hPa | 0 mm | - | 491 W/m² | - |
| 1788097326 | 30° C | 81% | 1020 hPa | 0 mm | - | 476 W/m² | - |
| 1788097022 | 28.89° C | 83% | 1019.9 hPa | 0 mm | - | 461 W/m² | - |
| 1788096717 | 28.89° C | 84% | 1019.9 hPa | 0 mm | - | 438 W/m² | - |
| 1788096413 | 28.89° C | 84% | 1020 hPa | 0 mm | - | 244 W/m² | - |
| 1788096109 | 28.33° C | 84% | 1019.6 hPa | 0 mm | - | 117 W/m² | - |
| 1788095808 | 28.33° C | 85% | 1019.7 hPa | 0 mm | - | 219 W/m² | - |
| 1788095502 | 27.78° C | 86% | 1019.7 hPa | 0 mm | - | 246 W/m² | - |
| 1788095198 | 27.22° C | 86% | 1019.8 hPa | 0 mm | - | 149 W/m² | - |
| 1788094897 | 27.22° C | 86% | 1019.7 hPa | 0 mm | - | 102 W/m² | - |
* Rain latest hour (hover to see other rain measurements)
** Current wind speed in m/s (hover to see current wind gust speed)